| time (UTC) | temp C | wind direction | speed KPH | gust KPH | rain 1hr cm | rain 24hr cm | rain mn cm | humidity % | barometer mb |
| 20260505101323 | 11 | 18 | 3.2 | 4.8 | 0.00 | 0.00 | 0.00 | 96 | 1012.2 |
| 20260505100819 | 11 | 212 | 1.6 | 3.2 | 0.00 | 0.00 | 0.00 | 96 | 1012.2 |
| 20260505100316 | 11 | 297 | 1.6 | 1.6 | 0.00 | 0.00 | 0.00 | 96 | 1012.2 |
| 20260505095811 | 11 | 3 | 1.6 | 3.2 | 0.00 | 0.00 | 0.00 | 96 | 1012.1 |
| 20260505095309 | 11 | 283 | 4.8 | 4.8 | 0.00 | 0.00 | 0.00 | 97 | 1012.1 |
| 20260505094804 | 11 | 347 | 1.6 | 1.6 | 0.00 | 0.00 | 0.00 | 96 | 1012.4 |
| 20260505094302 | 11 | 194 | 3.2 | 3.2 | 0.00 | 0.00 | 0.00 | 97 | 1012.2 |
| 20260505093757 | 11 | 229 | 8.0 | 9.7 | 0.00 | 0.00 | 0.00 | 97 | 1012.2 |
| 20260505093255 | 11 | 204 | 8.0 | 9.7 | 0.00 | 0.00 | 0.00 | 97 | 1012.0 |
| 20260505092752 | 11 | 249 | 8.0 | 11.3 | 0.00 | 0.00 | 0.00 | 97 | 1012.2 |
| 20260505092250 | 11 | 247 | 8.0 | 11.3 | 0.00 | 0.00 | 0.00 | 97 | 1012.1 |
| 20260505091747 | 11 | 212 | 8.0 | 9.7 | 0.00 | 0.00 | 0.00 | 97 | 1012.0 |
| 20260505091245 | 11 | 245 | 4.8 | 4.8 | 0.00 | 0.00 | 0.00 | 97 | 1012.0 |
| 20260505090743 | 11 | 119 | 6.4 | 8.0 | 0.00 | 0.00 | 0.00 | 97 | 1011.9 |
| 20260505090241 | 11 | 209 | 6.4 | 8.0 | 0.00 | 0.00 | 0.00 | 97 | 1011.8 |
| 20260505085738 | 11 | 307 | 6.4 | 8.0 | 0.00 | 0.00 | 0.00 | 97 | 1011.8 |
| 20260505085236 | 11 | 160 | 6.4 | 9.7 | 0.00 | 0.00 | 0.00 | 98 | 1012.0 |
| 20260505084733 | 11 | 238 | 6.4 | 9.7 | 0.00 | 0.00 | 0.00 | 98 | 1011.7 |
| 20260505084232 | 11 | 271 | 9.7 | 11.3 | 0.00 | 0.00 | 0.00 | 98 | 1011.7 |
| 20260505083728 | 11 | 130 | 4.8 | 8.0 | 0.00 | 0.00 | 0.00 | 98 | 1011.8 |
| 20260505083225 | 11 | 265 | 4.8 | 8.0 | 0.00 | 0.00 | 0.00 | 98 | 1011.9 |
| 20260505082721 | 11 | 219 | 8.0 | 11.3 | 0.00 | 0.00 | 0.00 | 98 | 1011.8 |
| 20260505082219 | 11 | 242 | 8.0 | 11.3 | 0.00 | 0.00 | 0.00 | 98 | 1011.8 |
| 20260505081714 | 11 | 257 | 9.7 | 11.3 | 0.00 | 0.00 | 0.00 | 99 | 1011.7 |
| 20260505081212 | 11 | 245 | 9.7 | 12.9 | 0.00 | 0.00 | 0.00 | 99 | 1011.8 |
| 20260505080709 | 11 | 164 | 4.8 | 9.7 | 0.00 | 0.00 | 0.00 | 99 | 1011.9 |
| 20260505080204 | 11 | 226 | 4.8 | 4.8 | 0.00 | 0.00 | 0.00 | 99 | 1011.9 |
| 20260505075701 | 11 | 254 | 8.0 | 11.3 | 0.00 | 0.00 | 0.00 | 99 | 1011.9 |
| 20260505075158 | 11 | 20 | 4.8 | 8.0 | 0.00 | 0.00 | 0.00 | 99 | 1011.8 |
| 20260505074655 | 11 | 269 | 4.8 | 4.8 | 0.00 | 0.00 | 0.00 | 99 | 1011.8 |
| 20260505074151 | 11 | 323 | 1.6 | 1.6 | 0.00 | 0.00 | 0.00 | 99 | 1011.8 |
| 20260505073649 | 11 | 218 | 4.8 | 4.8 | 0.00 | 0.00 | 0.00 | 99 | 1011.5 |
| 20260505073147 | 11 | 171 | 1.6 | 3.2 | 0.00 | 0.00 | 0.00 | 99 | 1011.7 |
| 20260505072643 | 11 | 332 | 1.6 | 1.6 | 0.00 | 0.00 | 0.00 | 98 | 1011.4 |
| 20260505072139 | 11 | 13 | 3.2 | 4.8 | 0.00 | 0.00 | 0.00 | 98 | 1011.5 |
| 20260505071635 | 11 | 340 | 1.6 | 3.2 | 0.00 | 0.00 | 0.00 | 98 | 1011.5 |
| 20260505071133 | 11 | 210 | 4.8 | 4.8 | 0.00 | 0.00 | 0.00 | 98 | 1011.4 |
| 20260505070630 | 11 | 287 | 4.8 | 9.7 | 0.00 | 0.00 | 0.00 | 98 | 1011.3 |
| 20260505070126 | 11 | 275 | 6.4 | 8.0 | 0.00 | 0.00 | 0.00 | 98 | 1011.3 |
| 20260505065622 | 11 | 226 | 3.2 | 3.2 | 0.00 | 0.00 | 0.00 | 97 | 1011.0 |
| 20260505065119 | 11 | 247 | 4.8 | 4.8 | 0.00 | 0.00 | 0.00 | 97 | 1011.1 |
| 20260505064616 | 11 | 244 | 6.4 | 8.0 | 0.00 | 0.00 | 0.00 | 97 | 1011.1 |
| 20260505064114 | 11 | 242 | 4.8 | 8.0 | 0.00 | 0.00 | 0.00 | 97 | 1011.1 |
| 20260505063611 | 11 | 232 | 8.0 | 9.7 | 0.00 | 0.00 | 0.00 | 96 | 1010.9 |
| 20260505063107 | 11 | 187 | 6.4 | 9.7 | 0.00 | 0.00 | 0.00 | 96 | 1010.8 |
| 20260505062604 | 11 | 234 | 4.8 | 4.8 | 0.00 | 0.00 | 0.00 | 96 | 1010.4 |
| 20260505062101 | 11 | 243 | 8.0 | 12.9 | 0.00 | 0.00 | 0.00 | 96 | 1010.7 |
| 20260505061558 | 11 | 219 | 6.4 | 8.0 | 0.00 | 0.00 | 0.00 | 96 | 1010.7 |
| 20260505061056 | 11 | 210 | 8.0 | 11.3 | 0.00 | 0.00 | 0.00 | 95 | 1010.6 |
| 20260505060553 | 11 | 258 | 4.8 | 8.0 | 0.00 | 0.00 | 0.00 | 95 | 1010.5 |
| 20260505060050 | 11 | 298 | 8.0 | 11.3 | 0.00 | 0.00 | 0.00 | 95 | 1010.6 |
| 20260505055545 | 11 | 278 | 6.4 | 9.7 | 0.00 | 0.00 | 0.00 | 95 | 1010.4 |
| 20260505055042 | 12 | 266 | 8.0 | 9.7 | 0.00 | 0.00 | 0.00 | 94 | 1010.5 |
| 20260505054539 | 12 | 86 | 4.8 | 8.0 | 0.00 | 0.00 | 0.00 | 94 | 1010.4 |
| 20260505054038 | 12 | 206 | 8.0 | 8.0 | 0.00 | 0.00 | 0.00 | 94 | 1010.5 |
| 20260505053534 | 12 | 228 | 11.3 | 12.9 | 0.00 | 0.00 | 0.00 | 93 | 1010.4 |
| 20260505053031 | 12 | 243 | 8.0 | 11.3 | 0.00 | 0.00 | 0.00 | 93 | 1010.3 |
| 20260505052528 | 12 | 245 | 14.5 | 16.1 | 0.00 | 0.00 | 0.00 | 93 | 1010.6 |
| 20260505052026 | 12 | 275 | 4.8 | 8.0 | 0.00 | 0.00 | 0.00 | 92 | 1010.1 |
| 20260505051522 | 12 | 268 | 11.3 | 12.9 | 0.00 | 0.00 | 0.00 | 92 | 1010.5 |
| 20260505051020 | 12 | 258 | 6.4 | 8.0 | 0.00 | 0.00 | 0.00 | 91 | 1010.4 |
| 20260505050518 | 12 | 214 | 6.4 | 9.7 | 0.00 | 0.00 | 0.00 | 91 | 1010.2 |
| 20260505041446 | 14 | 239 | 14.5 | 16.1 | 0.00 | 0.00 | 0.00 | 86 | 1010.0 |
| 20260505040943 | 14 | 238 | 6.4 | 8.0 | 0.00 | 0.00 | 0.00 | 85 | 1009.8 |
| 20260505040441 | 14 | 249 | 8.0 | 11.3 | 0.00 | 0.00 | 0.00 | 84 | 1009.6 |
| 20260505035937 | 15 | 283 | 9.7 | 12.9 | 0.00 | 0.00 | 0.00 | 84 | 1009.8 |
| 20260505035433 | 15 | 219 | 11.3 | 14.5 | 0.00 | 0.00 | 0.00 | 83 | 1009.7 |
| 20260505034931 | 15 | 226 | 14.5 | 16.1 | 0.00 | 0.00 | 0.00 | 82 | 1009.7 |
| 20260505034427 | 15 | 227 | 6.4 | 8.0 | 0.00 | 0.00 | 0.00 | 82 | 1009.4 |
| 20260505033924 | 15 | 257 | 4.8 | 8.0 | 0.00 | 0.00 | 0.00 | 81 | 1009.5 |
| 20260505033421 | 15 | 265 | 8.0 | 11.3 | 0.00 | 0.00 | 0.00 | 80 | 1009.6 |
| 20260505032919 | 16 | 278 | 11.3 | 12.9 | 0.00 | 0.00 | 0.00 | 79 | 1009.5 |
| 20260505032416 | 16 | 238 | 16.1 | 20.9 | 0.00 | 0.00 | 0.00 | 78 | 1009.4 |
| 20260505031912 | 16 | 275 | 6.4 | 9.7 | 0.00 | 0.00 | 0.00 | 77 | 1009.4 |
| 20260505031409 | 17 | 277 | 11.3 | 11.3 | 0.00 | 0.00 | 0.00 | 76 | 1009.2 |
| 20260505030906 | 17 | 230 | 8.0 | 11.3 | 0.00 | 0.00 | 0.00 | 75 | 1009.3 |
| 20260505030402 | 17 | 238 | 6.4 | 8.0 | 0.00 | 0.00 | 0.00 | 75 | 1009.2 |
| 20260505025857 | 18 | 166 | 4.8 | 4.8 | 0.00 | 0.00 | 0.00 | 74 | 1009.2 |
| 20260505025355 | 18 | 254 | 4.8 | 8.0 | 0.00 | 0.00 | 0.00 | 72 | 1009.1 |
| 20260505024854 | 18 | 251 | 8.0 | 11.3 | 0.00 | 0.00 | 0.00 | 71 | 1008.8 |
| 20260505024351 | 18 | 177 | 3.2 | 8.0 | 0.00 | 0.00 | 0.00 | 71 | 1009.0 |
| 20260505023848 | 19 | 222 | 8.0 | 11.3 | 0.00 | 0.00 | 0.00 | 69 | 1008.8 |
| 20260505023345 | 20 | 203 | 3.2 | 3.2 | 0.00 | 0.00 | 0.00 | 68 | 1009.0 |
| 20260505022842 | 20 | 248 | 8.0 | 9.7 | 0.00 | 0.00 | 0.00 | 67 | 1008.8 |
| 20260505022339 | 20 | 255 | 4.8 | 4.8 | 0.00 | 0.00 | 0.00 | 66 | 1008.7 |
| 20260505021836 | 20 | 308 | 3.2 | 4.8 | 0.00 | 0.00 | 0.00 | 64 | 1009.0 |
| 20260505021333 | 21 | 217 | 8.0 | 11.3 | 0.00 | 0.00 | 0.00 | 65 | 1008.8 |
| 20260505020829 | 21 | 211 | 6.4 | 8.0 | 0.00 | 0.00 | 0.00 | 64 | 1008.8 |
| 20260505020324 | 21 | 256 | 6.4 | 9.7 | 0.00 | 0.00 | 0.00 | 63 | 1008.8 |
| 20260505015821 | 22 | 219 | 4.8 | 4.8 | 0.00 | 0.00 | 0.00 | 63 | 1008.7 |
| 20260505015319 | 21 | 325 | 4.8 | 4.8 | 0.00 | 0.00 | 0.00 | 62 | 1008.7 |
| 20260505014816 | 22 | 321 | 6.4 | 8.0 | 0.00 | 0.00 | 0.00 | 62 | 1008.6 |
| 20260505014313 | 22 | 241 | 8.0 | 9.7 | 0.00 | 0.00 | 0.00 | 61 | 1008.8 |
| 20260505013809 | 22 | 268 | 6.4 | 8.0 | 0.00 | 0.00 | 0.00 | 62 | 1008.6 |
| 20260505013307 | 22 | 229 | 8.0 | 9.7 | 0.00 | 0.00 | 0.00 | 60 | 1009.0 |
| 20260505012805 | 22 | 223 | 6.4 | 8.0 | 0.00 | 0.00 | 0.00 | 59 | 1008.6 |
| 20260505012304 | 22 | 279 | 8.0 | 9.7 | 0.00 | 0.00 | 0.00 | 59 | 1008.7 |
| 20260505011758 | 22 | 244 | 11.3 | 12.9 | 0.00 | 0.00 | 0.00 | 60 | 1009.1 |
| 20260505011255 | 22 | 256 | 9.7 | 12.9 | 0.00 | 0.00 | 0.00 | 58 | 1009.1 |
| 20260505010750 | 22 | 305 | 9.7 | 12.9 | 0.00 | 0.00 | 0.00 | 57 | 1008.7 |
| 20260505010247 | 22 | 239 | 14.5 | 16.1 | 0.00 | 0.00 | 0.00 | 57 | 1008.8 |
| 20260505005743 | 22 | 255 | 14.5 | 17.7 | 0.00 | 0.00 | 0.00 | 57 | 1009.0 |
| 20260505005240 | 23 | 227 | 14.5 | 20.9 | 0.00 | 0.00 | 0.00 | 56 | 1009.0 |
| 20260505004738 | 23 | 210 | 8.0 | 11.3 | 0.00 | 0.00 | 0.00 | 56 | 1008.6 |
| 20260505004234 | 23 | 224 | 16.1 | 16.1 | 0.00 | 0.00 | 0.00 | 55 | 1009.0 |
| 20260505003731 | 23 | 204 | 8.0 | 9.7 | 0.00 | 0.00 | 0.00 | 55 | 1008.7 |
| 20260505003229 | 23 | 219 | 14.5 | 17.7 | 0.00 | 0.00 | 0.00 | 54 | 1008.6 |
| 20260505002725 | 23 | 234 | 12.9 | 17.7 | 0.00 | 0.00 | 0.00 | 54 | 1008.8 |
| 20260505002222 | 23 | 245 | 12.9 | 14.5 | 0.00 | 0.00 | 0.00 | 54 | 1008.7 |
| 20260505001720 | 23 | 210 | 11.3 | 12.9 | 0.00 | 0.00 | 0.00 | 54 | 1008.8 |
| 20260505001217 | 23 | 51 | 3.2 | 4.8 | 0.00 | 0.00 | 0.00 | 54 | 1008.8 |
| 20260505000714 | 24 | 277 | 8.0 | 11.3 | 0.00 | 0.00 | 0.00 | 52 | 1009.0 |
| 20260505000212 | 23 | 216 | 4.8 | 4.8 | 0.00 | 0.00 | 0.00 | 53 | 1009.0 |
| 20260504235708 | 23 | 214 | 8.0 | 9.7 | 0.00 | 0.00 | 0.00 | 54 | 1008.7 |
| 20260504235204 | 24 | 239 | 6.4 | 9.7 | 0.00 | 0.00 | 0.00 | 53 | 1009.1 |
| 20260504234702 | 24 | 243 | 14.5 | 16.1 | 0.00 | 0.00 | 0.00 | 52 | 1008.8 |
| 20260504234159 | 25 | 242 | 14.5 | 16.1 | 0.00 | 0.00 | 0.00 | 51 | 1008.6 |
| 20260504233655 | 25 | 216 | 9.7 | 12.9 | 0.00 | 0.00 | 0.00 | 52 | 1008.7 |
| 20260504233151 | 25 | 250 | 8.0 | 9.7 | 0.00 | 0.00 | 0.00 | 53 | 1008.6 |
| 20260504232649 | 25 | 216 | 11.3 | 12.9 | 0.00 | 0.00 | 0.00 | 53 | 1009.0 |
| 20260504232145 | 25 | 241 | 4.8 | 4.8 | 0.00 | 0.00 | 0.00 | 54 | 1008.8 |
| 20260504231642 | 25 | 198 | 8.0 | 11.3 | 0.00 | 0.00 | 0.00 | 50 | 1008.8 |
| 20260504231138 | 24 | 236 | 12.9 | 16.1 | 0.00 | 0.00 | 0.00 | 50 | 1008.7 |
| 20260504230635 | 25 | 223 | 4.8 | 4.8 | 0.00 | 0.00 | 0.00 | 54 | 1008.8 |
| 20260504230134 | 24 | 24 | 4.8 | 4.8 | 0.00 | 0.00 | 0.00 | 54 | 1009.1 |
| 20260504225632 | 23 | 247 | 11.3 | 12.9 | 0.00 | 0.00 | 0.00 | 55 | 1009.1 |
| 20260504225127 | 24 | 252 | 8.0 | 9.7 | 0.00 | 0.00 | 0.00 | 53 | 1009.2 |
| 20260504224624 | 24 | 209 | 4.8 | 4.8 | 0.00 | 0.00 | 0.00 | 56 | 1009.3 |
| 20260504224121 | 24 | 229 | 12.9 | 14.5 | 0.00 | 0.00 | 0.00 | 56 | 1009.3 |
| 20260504223618 | 25 | 255 | 6.4 | 8.0 | 0.00 | 0.00 | 0.00 | 52 | 1009.5 |
| 20260504223114 | 25 | 221 | 4.8 | 4.8 | 0.00 | 0.00 | 0.00 | 53 | 1009.4 |
| 20260504222611 | 24 | 231 | 6.4 | 8.0 | 0.00 | 0.00 | 0.00 | 56 | 1009.3 |
| 20260504222108 | 23 | 359 | 1.6 | 1.6 | 0.00 | 0.00 | 0.00 | 56 | 1009.5 |
| 20260504221605 | 23 | 252 | 16.1 | 20.9 | 0.00 | 0.00 | 0.00 | 56 | 1009.8 |
| 20260504221102 | 23 | 266 | 9.7 | 11.3 | 0.00 | 0.00 | 0.00 | 56 | 1009.4 |
| 20260504220558 | 23 | 204 | 8.0 | 11.3 | 0.00 | 0.00 | 0.00 | 56 | 1009.6 |
| 20260504220056 | 23 | 224 | 6.4 | 9.7 | 0.00 | 0.00 | 0.00 | 56 | 1009.7 |
| 20260504215552 | 23 | 252 | 11.3 | 11.3 | 0.00 | 0.00 | 0.00 | 59 | 1009.6 |
| 20260504215050 | 22 | 231 | 9.7 | 11.3 | 0.00 | 0.00 | 0.00 | 57 | 1009.7 |
| 20260504214545 | 23 | 242 | 12.9 | 12.9 | 0.00 | 0.00 | 0.00 | 58 | 1010.1 |
| 20260504214042 | 23 | 234 | 9.7 | 11.3 | 0.00 | 0.00 | 0.00 | 57 | 1009.7 |
| 20260504213538 | 23 | 241 | 9.7 | 11.3 | 0.00 | 0.00 | 0.00 | 57 | 1009.9 |
| 20260504213036 | 23 | 243 | 14.5 | 16.1 | 0.00 | 0.00 | 0.00 | 58 | 1009.8 |
| 20260504212531 | 23 | 297 | 3.2 | 4.8 | 0.00 | 0.00 | 0.00 | 57 | 1010.1 |
| 20260504212029 | 22 | 257 | 4.8 | 4.8 | 0.00 | 0.00 | 0.00 | 57 | 1009.9 |
| 20260504211526 | 22 | 293 | 6.4 | 9.7 | 0.00 | 0.00 | 0.00 | 58 | 1010.0 |
| 20260504211023 | 23 | 285 | 8.0 | 11.3 | 0.00 | 0.00 | 0.00 | 54 | 1010.0 |
| 20260504210520 | 23 | 286 | 8.0 | 14.5 | 0.00 | 0.00 | 0.00 | 55 | 1010.0 |
| 20260504210016 | 22 | 244 | 8.0 | 12.9 | 0.00 | 0.00 | 0.00 | 58 | 1010.1 |
| 20260504205515 | 23 | 239 | 6.4 | 8.0 | 0.00 | 0.00 | 0.00 | 56 | 1010.1 |
| 20260504205012 | 23 | 192 | 4.8 | 8.0 | 0.00 | 0.00 | 0.00 | 54 | 1010.1 |
| 20260504204510 | 23 | 256 | 3.2 | 3.2 | 0.00 | 0.00 | 0.00 | 56 | 1010.2 |
| 20260504204009 | 22 | 336 | 4.8 | 8.0 | 0.00 | 0.00 | 0.00 | 54 | 1010.2 |
| 20260504203506 | 22 | 179 | 6.4 | 9.7 | 0.00 | 0.00 | 0.00 | 57 | 1010.3 |
| 20260504203003 | 22 | 264 | 8.0 | 9.7 | 0.00 | 0.00 | 0.00 | 56 | 1010.0 |
| 20260504202459 | 23 | 291 | 9.7 | 12.9 | 0.00 | 0.00 | 0.00 | 61 | 1010.3 |
| 20260504201956 | 22 | 225 | 4.8 | 8.0 | 0.00 | 0.00 | 0.00 | 59 | 1010.0 |
| 20260504201453 | 22 | 200 | 3.2 | 4.8 | 0.00 | 0.00 | 0.00 | 61 | 1009.8 |
| 20260504200950 | 22 | 231 | 6.4 | 9.7 | 0.00 | 0.00 | 0.00 | 63 | 1009.9 |
| 20260504200447 | 22 | 189 | 8.0 | 9.7 | 0.00 | 0.00 | 0.00 | 64 | 1009.9 |
| 20260504195944 | 21 | 243 | 8.0 | 9.7 | 0.00 | 0.00 | 0.00 | 66 | 1010.2 |
| 20260504195439 | 21 | 218 | 12.9 | 14.5 | 0.00 | 0.00 | 0.00 | 66 | 1010.2 |
| 20260504194936 | 21 | 192 | 8.0 | 11.3 | 0.00 | 0.00 | 0.00 | 66 | 1010.3 |
| 20260504194432 | 21 | 247 | 14.5 | 16.1 | 0.00 | 0.00 | 0.00 | 66 | 1010.1 |
| 20260504193928 | 21 | 264 | 6.4 | 8.0 | 0.00 | 0.00 | 0.00 | 66 | 1010.4 |
| 20260504193426 | 21 | 215 | 4.8 | 4.8 | 0.00 | 0.00 | 0.00 | 67 | 1010.1 |
| 20260504192925 | 21 | 239 | 4.8 | 4.8 | 0.00 | 0.00 | 0.00 | 66 | 1010.3 |
| 20260504192421 | 21 | 226 | 8.0 | 9.7 | 0.00 | 0.00 | 0.00 | 65 | 1010.2 |
| 20260504191920 | 22 | 232 | 14.5 | 16.1 | 0.00 | 0.00 | 0.00 | 65 | 1010.2 |
| 20260504191418 | 21 | 215 | 8.0 | 9.7 | 0.00 | 0.00 | 0.00 | 66 | 1010.3 |
| 20260504190913 | 21 | 222 | 4.8 | 9.7 | 0.00 | 0.00 | 0.00 | 67 | 1010.0 |
| 20260504190409 | 21 | 273 | 8.0 | 9.7 | 0.00 | 0.00 | 0.00 | 64 | 1010.1 |
| 20260504185906 | 21 | 216 | 8.0 | 9.7 | 0.00 | 0.00 | 0.00 | 62 | 1010.2 |
| 20260504185403 | 21 | 6 | 1.6 | 3.2 | 0.00 | 0.00 | 0.00 | 66 | 1010.3 |
| 20260504184859 | 21 | 49 | 4.8 | 4.8 | 0.00 | 0.00 | 0.00 | 63 | 1010.3 |
| 20260504184355 | 21 | 53 | 3.2 | 4.8 | 0.00 | 0.00 | 0.00 | 62 | 1010.3 |
| 20260504183851 | 20 | 197 | 6.4 | 8.0 | 0.00 | 0.00 | 0.00 | 66 | 1010.4 |
| 20260504183349 | 21 | 33 | 3.2 | 3.2 | 0.00 | 0.00 | 0.00 | 60 | 1010.3 |
| 20260504182846 | 21 | 242 | 4.8 | 8.0 | 0.00 | 0.00 | 0.00 | 64 | 1010.4 |
| 20260504182343 | 21 | 168 | 6.4 | 8.0 | 0.00 | 0.00 | 0.00 | 62 | 1010.4 |
| 20260504181840 | 20 | 300 | 3.2 | 3.2 | 0.00 | 0.00 | 0.00 | 63 | 1010.4 |
| 20260504181337 | 20 | 225 | 4.8 | 9.7 | 0.00 | 0.00 | 0.00 | 64 | 1010.5 |
| 20260504180836 | 21 | 18 | 1.6 | 3.2 | 0.00 | 0.00 | 0.00 | 62 | 1010.5 |
| 20260504180334 | 20 | 19 | 0.0 | 1.6 | 0.00 | 0.00 | 0.00 | 64 | 1010.4 |
| 20260504175832 | 20 | 243 | 4.8 | 4.8 | 0.00 | 0.00 | 0.00 | 65 | 1010.6 |
| 20260504175328 | 20 | 179 | 4.8 | 8.0 | 0.00 | 0.00 | 0.00 | 63 | 1010.4 |
| 20260504174827 | 20 | 27 | 3.2 | 3.2 | 0.00 | 0.00 | 0.00 | 66 | 1010.8 |
| 20260504174324 | 20 | 197 | 6.4 | 9.7 | 0.00 | 0.00 | 0.00 | 64 | 1010.3 |
| 20260504173821 | 19 | 179 | 4.8 | 4.8 | 0.00 | 0.00 | 0.00 | 66 | 1010.4 |
| 20260504173317 | 19 | 243 | 12.9 | 14.5 | 0.00 | 0.00 | 0.00 | 67 | 1010.4 |
| 20260504172814 | 19 | 224 | 8.0 | 11.3 | 0.00 | 0.00 | 0.00 | 65 | 1010.3 |
| 20260504172311 | 19 | 225 | 6.4 | 8.0 | 0.00 | 0.00 | 0.00 | 67 | 1010.3 |
| 20260504171807 | 19 | 258 | 8.0 | 9.7 | 0.00 | 0.00 | 0.00 | 67 | 1010.3 |
| 20260504171304 | 18 | 252 | 8.0 | 9.7 | 0.00 | 0.00 | 0.00 | 67 | 1010.3 |
| 20260504170801 | 19 | 242 | 6.4 | 8.0 | 0.00 | 0.00 | 0.00 | 68 | 1010.5 |
| 20260504170258 | 18 | 210 | 3.2 | 4.8 | 0.00 | 0.00 | 0.00 | 67 | 1010.2 |
| 20260504160216 | 17 | 237 | 11.3 | 14.5 | 0.00 | 0.00 | 0.00 | 68 | 1009.9 |
| 20260504151144 | 16 | 248 | 6.4 | 8.0 | 0.00 | 0.00 | 0.00 | 68 | 1009.5 |
| 20260504150642 | 16 | 216 | 6.4 | 8.0 | 0.00 | 0.00 | 0.00 | 69 | 1009.4 |
| 20260504150138 | 16 | 299 | 3.2 | 3.2 | 0.00 | 0.00 | 0.00 | 70 | 1009.7 |
| 20260504141107 | 14 | 347 | 1.6 | 3.2 | 0.00 | 0.00 | 0.00 | 73 | 1009.2 |
| 20260504140604 | 14 | 43 | 0.0 | 0.0 | 0.00 | 0.00 | 0.00 | 74 | 1009.3 |
| 20260504130528 | 12 | 32 | 0.0 | 0.0 | 0.00 | 0.00 | 0.00 | 81 | 1009.0 |
| 20260504110415 | 13 | 44 | 0.0 | 1.6 | 0.00 | 0.00 | 0.00 | 70 | 1008.8 |